Flag for Norway Weather past 2 weeks in Jan Mayen, Jan Mayen, Norway

Now
31 °F

Chilly.


Feels Like: 27 °F
Forecast: 28 / 34 °F
Wind: 5 mph from Southwest

Location: Jan Mayen

Current Time: Mar 27, 2015 at 6:44:39 AM

Latest Report: Mar 27, 2015 at 6:00 AM


Visibility: N/A

Pressure: 29.29 "Hg

Humidity: 80%

Dew point: 26 °F

Location of Jan MayenLocation

Historic Weather in Jan Mayen — Graph

°F

Jan Mayen temperature yesterday

Maximum temperature yesterday: 36 °F (at 8:00 AM)
Minimum temperature yesterday: 32 °F (at 11:00 PM)
Average temperature yesterday: 35 °F

Past Weeks' High & Low Weather Summary

 TemperatureHumidityPressure
High40 °F (Mar 17, 4:00 AM)99% (Mar 13, 5:00 AM)30.59 "Hg (Mar 13, 5:00 AM)
Low16 °F (Mar 19, 7:00 AM)48% (Mar 17, 6:00 AM)29.03 "Hg (Mar 12, 5:00 AM)
Average29 °F84%29.84 "Hg
* Reported Mar 12 5:00 AM — Mar 27 5:00 AM, Jan Mayen, Weather by CustomWeather, © 2015

Note: Actual official high and low records may vary slightly from our data, if they occured in-between our weather recording intervals... More about our weather records

Advertising

Jan Mayen weather history for previous 24 hours

 ConditionsComfort  
Time TempWeatherWind HumidityBarometerVisibility
5:00 AM
Fri, Mar 27
32 °FChilly.7 mph83%29.29 "HgN/A
3:00 AM32 °FChilly.3 mph92%29.29 "HgN/A
2:00 AM32 °FChilly.5 mph88%29.29 "HgN/A
1:00 AM31 °FSnow flurries. Overcast.10 mph92%29.26 "Hg3 mi
12:00 AM31 °FChilly.13 mph92%29.26 "HgN/A
11:00 PM
Thu, Mar 26
32 °FChilly.9 mph88%29.26 "HgN/A
9:00 PM34 °FChilly.10 mph96%29.23 "HgN/A
8:00 PM34 °FChilly.13 mph94%29.23 "HgN/A
7:00 PM35 °FRain. Low clouds.13 mph93%29.26 "Hg4 mi
6:00 PM34 °FChilly.7 mph95%29.26 "HgN/A
5:00 PM33 °FChilly.7 mph96%29.29 "HgN/A
4:00 PM33 °FLight rain. Low clouds.12 mph94%29.29 "Hg1 mi
3:00 PM34 °FChilly.12 mph94%29.29 "HgN/A
2:00 PM35 °FChilly.13 mph93%29.29 "HgN/A
1:00 PM35 °FRain. Overcast.15 mph92%29.29 "Hg4 mi
12:00 PM35 °FChilly.16 mph92%29.29 "HgN/A
11:00 AM36 °FChilly.17 mph91%29.29 "HgN/A
10:00 AM36 °FRain. Overcast.16 mph90%29.29 "Hg4 mi
9:00 AM36 °FChilly.17 mph90%29.29 "HgN/A
8:00 AM36 °FChilly.16 mph90%29.29 "HgN/A
7:00 AM36 °FChilly.16 mph90%29.32 "HgN/A
6:00 AM36 °FChilly.15 mph91%29.32 "HgN/A
Weather by CustomWeather, © 2015

See weather overviewHow to use our weather pages